THOR 5

Last updated on Jan. 20, 2020, 4:31 a.m. UTC

1 32487U 08006A   20019.33747701 -.00000014  00000-0  00000+0 0  9997
2 32487   0.0386 228.9396 0002254  74.4918 295.4682  1.00271211 43703
UTC
Height (km)
Latitude
Longitude
Inclination
Orbital Period
UTC large
Height (km)
Speed (km/s)
/
Latitude / Longitude
Inclination (degrees)
Orbital Period (minutes)
Azimuth
Elevation
Range (km)
Doppler Factor
iOS Compass Heading
iOS Angle

Next 30 passes for location: Hong Kong

Rise time Rise Azimuth (degrees) Set time Set Azimuth (degrees) Duration Max altitude (degrees)

No matching passes for this satellites